Weather History for KPRN - May, 2014

Change the Weather History Date:

Saturday, May 3, 2014

  Actual Average Record
Temperature  
Mean Temperature 62 °F -  
Max Temperature 79 °F 81 °F 93 °F (1990)
Min Temperature 46 °F 57 °F 44 °F (1940)
Degree Days  
Heating Degree Days 2    
Growing Degree Days 12 (Base 50)    
Moisture  
Dew Point 46 °F    
Average Humidity 58    
Maximum Humidity 90    
Minimum Humidity 27    
Precipitation  
Precipitation 0.00 in - - ()
Sea Level Pressure  
Sea Level Pressure 30.02 in    
Wind  
Wind Speed 3 mph (NW)    
Max Wind Speed 9 mph    
Max Gust Speed 18 mph    
Visibility 10 miles    
Events      
Averages and records for this station are not official NWS values.
T = Trace of Precipitation, MM = Missing Value Source: NWS Daily Summary

Daily Weather History Graph

Daily Weather History Graph

Search for Another Location

Airport or City:

Trip Planner

Search our weather history database for the weather conditions in past years. The results will help you decide how hot, cold, wet, or windy it might be!

Date:

Astronomy

May. 03, 2014 Rise Set
Actual Time 5:58 AM CDT 7:28 PM CDT
Civil Twilight 5:32 AM CDT 7:54 PM CDT
Nautical Twilight 5:01 AM CDT 8:25 PM CDT
Astronomical Twilight 4:29 AM CDT 8:58 PM CDT
Moon 9:31 AM CDT (5/3) 11:31 PM CDT (5/3)
Length of Visible Light 14h 21m
Length of Day
13h 29m
Waxing Crescent, 20% of the Moon is Illuminated
May 3
Waxing Crescent
May 6
First Quarter
May 14
Full
May 21
Last Quarter
May 28
New

Hourly Weather History & Observations

Time (CDT) Temp. Dew Point Humidity Pressure Visibility Wind Dir Wind Speed Gust Speed Precip Events Conditions
12:56 AM 54.0 °F 48.9 °F 83% 29.97 in 10.0 mi North 3.5 mph - N/A   Clear
1:56 AM 53.1 °F 48.9 °F 86% 29.97 in 10.0 mi Calm Calm - N/A   Clear
2:56 AM 51.1 °F 48.0 °F 89% 29.98 in 10.0 mi North 4.6 mph - N/A   Clear
3:56 AM 50.0 °F 46.9 °F 89% 29.99 in 10.0 mi Calm Calm - N/A   Clear
4:56 AM 48.0 °F 45.0 °F 89% 30.00 in 10.0 mi Calm Calm - N/A   Clear
5:56 AM 46.9 °F 44.1 °F 90% 30.00 in 10.0 mi Calm Calm - N/A   Clear
6:56 AM 50.0 °F 46.9 °F 89% 30.02 in 10.0 mi Calm Calm - N/A   Clear
7:56 AM 60.1 °F 51.1 °F 72% 30.03 in 10.0 mi Calm Calm - N/A   Clear
8:56 AM 66.9 °F 48.0 °F 51% 30.05 in 10.0 mi Calm Calm - N/A   Clear
9:56 AM 70.0 °F 43.0 °F 38% 30.06 in 10.0 mi Variable 3.5 mph - N/A   Clear
10:56 AM 73.0 °F 41.0 °F 31% 30.07 in 10.0 mi NW 8.1 mph 18.4 mph N/A   Clear
11:56 AM 75.0 °F 41.0 °F 29% 30.06 in 10.0 mi WNW 8.1 mph 18.4 mph N/A   Clear
12:56 PM 77.0 °F 43.0 °F 30% 30.05 in 10.0 mi NNW 6.9 mph - N/A   Partly Cloudy
1:56 PM 75.9 °F 41.0 °F 29% 30.03 in 10.0 mi NW 6.9 mph - N/A   Clear
2:56 PM 78.1 °F 42.1 °F 28% 30.01 in 10.0 mi West 9.2 mph - N/A   Scattered Clouds
3:56 PM 79.0 °F 43.0 °F 28% 30.00 in 10.0 mi NNW 9.2 mph - N/A   Clear
4:56 PM 78.1 °F 41.0 °F 27% 30.00 in 10.0 mi West 6.9 mph - N/A   Clear
5:56 PM 77.0 °F 42.1 °F 29% 30.01 in 10.0 mi WNW 8.1 mph - N/A   Clear
6:56 PM 73.9 °F 46.0 °F 37% 30.02 in 10.0 mi WNW 3.5 mph - N/A   Clear
7:56 PM 66.0 °F 53.1 °F 63% 30.04 in 10.0 mi Calm Calm - N/A   Clear
8:56 PM 61.0 °F 52.0 °F 72% 30.05 in 10.0 mi Calm Calm - N/A   Clear
9:56 PM 59.0 °F 53.1 °F 81% 30.07 in 10.0 mi Calm Calm - N/A   Clear
11:56 PM 55.9 °F 51.1 °F 84% 30.08 in 10.0 mi Calm Calm - N/A   Clear